Hourly Weather Golbeya

Today, 18 May, Tuesday

Time Temperature Precipitation Wind Pressure Humidity
00:00 +12°C° 0 mm 2 mps 741 mmHg 97%
01:00 +12°C° 0 mm 2 mps 740 mmHg 97%
02:00 +12°C° 0 mm 2 mps 740 mmHg 98%
03:00 +12°C° 0 mm 2 mps 740 mmHg 98%
04:00 +13°C° 0 mm 2 mps 740 mmHg 98%
05:00 +13°C° 0 mm 2 mps 740 mmHg 98%
06:00 +12°C° 0 mm 3 mps 740 mmHg 96%
07:00 +13°C° 0 mm 3 mps 740 mmHg 94%
08:00 +14°C° 0 mm 3 mps 740 mmHg 92%
09:00 +14°C° 0.2 mm 3 mps 739 mmHg 93%
10:00 +14°C° 0.2 mm 3 mps 739 mmHg 94%
11:00 +14°C° 0.2 mm 3 mps 739 mmHg 95%
12:00 +14°C° 0.3 mm 3 mps 739 mmHg 96%
13:00 +15°C° 0.3 mm 2 mps 739 mmHg 96%
14:00 +15°C° 0.3 mm 2 mps 739 mmHg 97%
15:00 +15°C° 0.1 mm 2 mps 738 mmHg 96%
16:00 +16°C° 0.1 mm 2 mps 738 mmHg 96%
17:00 +16°C° 0.1 mm 1 mps 738 mmHg 95%
18:00 +16°C° 0 mm 1 mps 738 mmHg 95%
19:00 +15°C° 0 mm 1 mps 738 mmHg 96%
20:00 +15°C° 0 mm 1 mps 738 mmHg 97%
21:00 +14°C° 0 mm 1 mps 738 mmHg 97%
22:00 +14°C° 0 mm 1 mps 738 mmHg 97%
23:00 +14°C° 0 mm 1 mps 738 mmHg 97%

Tomorrow, 19 May, Wednesday

Time Temperature Precipitation Wind Pressure Humidity
00:00 +14°C° 0.1 mm 1 mps 738 mmHg 98%
01:00 +13°C° 0.1 mm 2 mps 738 mmHg 98%
02:00 +13°C° 0.1 mm 2 mps 738 mmHg 98%
03:00 +13°C° 0.3 mm 2 mps 738 mmHg 98%
04:00 +13°C° 0.3 mm 2 mps 738 mmHg 98%
05:00 +12°C° 0.3 mm 2 mps 738 mmHg 98%
06:00 +12°C° 0.4 mm 2 mps 739 mmHg 97%
07:00 +11°C° 0.4 mm 3 mps 739 mmHg 97%
08:00 +11°C° 0.4 mm 3 mps 739 mmHg 96%
09:00 +10°C° 0.3 mm 3 mps 740 mmHg 96%
10:00 +10°C° 0.3 mm 3 mps 740 mmHg 95%
11:00 +10°C° 0.3 mm 4 mps 741 mmHg 94%
12:00 +10°C° 0.1 mm 4 mps 741 mmHg 94%
13:00 +10°C° 0.1 mm 4 mps 742 mmHg 93%
14:00 +9°C° 0.1 mm 5 mps 742 mmHg 93%
15:00 +10°C° 0.1 mm 4 mps 743 mmHg 92%
16:00 +11°C° 0.1 mm 4 mps 743 mmHg 91%
17:00 +11°C° 0.1 mm 4 mps 743 mmHg 91%
18:00 +10°C° 0 mm 3 mps 744 mmHg 92%
19:00 +10°C° 0 mm 3 mps 744 mmHg 93%
20:00 +10°C° 0 mm 2 mps 744 mmHg 94%
21:00 +9°C° 0 mm 2 mps 744 mmHg 95%
22:00 +9°C° 0 mm 3 mps 745 mmHg 95%
23:00 +9°C° 0 mm 3 mps 745 mmHg 96%

Day after tomorrow, 20 May, Thursday

Time Temperature Precipitation Wind Pressure Humidity
00:00 +8°C° 0 mm 3 mps 745 mmHg 95%
01:00 +8°C° 0 mm 2 mps 745 mmHg 95%
02:00 +8°C° 0 mm 2 mps 745 mmHg 95%
03:00 +8°C° 0 mm 2 mps 745 mmHg 95%
04:00 +8°C° 0 mm 2 mps 745 mmHg 95%
05:00 +8°C° 0 mm 2 mps 745 mmHg 95%
06:00 +9°C° 0 mm 3 mps 745 mmHg 93%
07:00 +10°C° 0 mm 3 mps 745 mmHg 91%
08:00 +10°C° 0 mm 4 mps 745 mmHg 88%
09:00 +11°C° 0.1 mm 4 mps 745 mmHg 85%
10:00 +12°C° 0.1 mm 5 mps 745 mmHg 81%
11:00 +12°C° 0.1 mm 5 mps 744 mmHg 77%
12:00 +13°C° 0.3 mm 5 mps 744 mmHg 77%
13:00 +13°C° 0.3 mm 5 mps 744 mmHg 76%
14:00 +13°C° 0.3 mm 5 mps 744 mmHg 76%
15:00 +12°C° 0.6 mm 5 mps 744 mmHg 79%
16:00 +11°C° 0.6 mm 6 mps 744 mmHg 81%
17:00 +11°C° 0.6 mm 6 mps 744 mmHg 84%
18:00 +10°C° 0.2 mm 6 mps 743 mmHg 83%
19:00 +10°C° 0.2 mm 6 mps 743 mmHg 83%
20:00 +10°C° 0.2 mm 6 mps 743 mmHg 83%
21:00 +9°C° 1.7 mm 6 mps 743 mmHg 86%
22:00 +9°C° 1.7 mm 6 mps 743 mmHg 89%
23:00 +8°C° 1.7 mm 6 mps 743 mmHg 92%

21 May, Friday

Time Temperature Precipitation Wind Pressure Humidity
00:00 +8°C° 1.3 mm 6 mps 743 mmHg 91%
01:00 +7°C° 1.3 mm 6 mps 743 mmHg 91%
02:00 +6°C° 1.3 mm 7 mps 743 mmHg 90%
03:00 +5°C° 0.6 mm 7 mps 743 mmHg 90%
04:00 +5°C° 0.6 mm 7 mps 743 mmHg 90%
05:00 +5°C° 0.6 mm 7 mps 743 mmHg 90%
06:00 +5°C° 0.1 mm 7 mps 744 mmHg 89%
07:00 +6°C° 0.1 mm 7 mps 744 mmHg 88%
08:00 +6°C° 0.1 mm 7 mps 744 mmHg 87%
09:00 +8°C° 0 mm 7 mps 744 mmHg 81%
10:00 +9°C° 0 mm 7 mps 745 mmHg 74%
11:00 +11°C° 0 mm 7 mps 745 mmHg 68%
12:00 +12°C° 0 mm 7 mps 745 mmHg 64%
13:00 +12°C° 0 mm 7 mps 745 mmHg 60%
14:00 +14°C° 0 mm 6 mps 745 mmHg 57%
15:00 +14°C° 0 mm 6 mps 746 mmHg 61%
16:00 +13°C° 0 mm 6 mps 746 mmHg 65%
17:00 +13°C° 0 mm 6 mps 746 mmHg 69%
18:00 +11°C° 0 mm 6 mps 747 mmHg 72%
19:00 +10°C° 0 mm 5 mps 747 mmHg 74%
20:00 +9°C° 0 mm 5 mps 747 mmHg 76%
21:00 +7°C° 0 mm 4 mps 747 mmHg 81%
22:00 +7°C° 0 mm 3 mps 748 mmHg 86%
23:00 +4°C° 0 mm 3 mps 748 mmHg 91%

22 May, Saturday

Time Temperature Precipitation Wind Pressure Humidity
00:00 +4°C° 0 mm 3 mps 748 mmHg 91%
01:00 +3°C° 0 mm 3 mps 748 mmHg 91%
02:00 +3°C° 0 mm 3 mps 748 mmHg 91%
03:00 +4°C° 0 mm 2 mps 748 mmHg 91%
04:00 +4°C° 0 mm 2 mps 748 mmHg 90%
05:00 +4°C° 0 mm 2 mps 748 mmHg 90%
06:00 +5°C° 0 mm 3 mps 748 mmHg 83%
07:00 +8°C° 0 mm 3 mps 748 mmHg 77%
08:00 +10°C° 0 mm 4 mps 748 mmHg 70%
09:00 +12°C° 0 mm 4 mps 748 mmHg 65%
10:00 +13°C° 0 mm 5 mps 748 mmHg 59%
11:00 +14°C° 0 mm 5 mps 748 mmHg 53%
12:00 +15°C° 0 mm 5 mps 748 mmHg 53%
13:00 +15°C° 0 mm 5 mps 748 mmHg 52%
14:00 +16°C° 0 mm 5 mps 748 mmHg 51%
15:00 +15°C° 0 mm 4 mps 748 mmHg 58%
16:00 +14°C° 0 mm 3 mps 748 mmHg 64%
17:00 +15°C° 0 mm 1 mps 748 mmHg 71%
18:00 +14°C° 0 mm 2 mps 748 mmHg 75%
19:00 +13°C° 0 mm 2 mps 748 mmHg 80%
20:00 +11°C° 0 mm 3 mps 748 mmHg 84%
21:00 +11°C° 0 mm 3 mps 748 mmHg 86%
22:00 +10°C° 0 mm 3 mps 748 mmHg 88%
23:00 +8°C° 0 mm 4 mps 748 mmHg 90%

23 May, Sunday

Time Temperature Precipitation Wind Pressure Humidity
00:00 +8°C° 0 mm 4 mps 748 mmHg 89%
01:00 +8°C° 0 mm 4 mps 748 mmHg 87%
02:00 +8°C° 0 mm 4 mps 748 mmHg 86%
03:00 +8°C° 0 mm 4 mps 748 mmHg 85%
04:00 +9°C° 0 mm 3 mps 748 mmHg 85%
05:00 +9°C° 0 mm 3 mps 748 mmHg 84%
06:00 +11°C° 0 mm 4 mps 748 mmHg 81%
07:00 +12°C° 0 mm 4 mps 748 mmHg 77%
08:00 +13°C° 0 mm 5 mps 749 mmHg 73%
09:00 +14°C° 0 mm 5 mps 749 mmHg 71%
10:00 +15°C° 0 mm 5 mps 748 mmHg 69%
11:00 +16°C° 0 mm 6 mps 748 mmHg 67%
12:00 +16°C° 0.2 mm 5 mps 748 mmHg 68%
13:00 +16°C° 0.2 mm 5 mps 748 mmHg 70%
14:00 +16°C° 0.2 mm 5 mps 748 mmHg 71%
15:00 +15°C° 0.6 mm 4 mps 748 mmHg 78%
16:00 +14°C° 0.6 mm 4 mps 748 mmHg 85%
17:00 +13°C° 0.6 mm 3 mps 748 mmHg 91%
18:00 +13°C° 0.1 mm 4 mps 748 mmHg 91%
19:00 +13°C° 0.1 mm 4 mps 748 mmHg 91%
20:00 +12°C° 0.1 mm 4 mps 748 mmHg 91%
21:00 +12°C° 0 mm 4 mps 748 mmHg 93%
22:00 +11°C° 0 mm 4 mps 748 mmHg 94%
23:00 +10°C° 0 mm 4 mps 748 mmHg 96%
Show more